weather.gov     
National Weather Service

Regional Weather Roundup
NWS Homepage
This page is being discontinued on March 12, 2014.
The same data is available at this site. Please update your bookmarks.
Thank you, and we apologize for the inconvenience.
Please send an email to SR-SRH.Webmaster@noaa.gov with any concerns.


Current Version
Previous Version:    01  02  03  04  05  06  07  08  09  10  11  12  13  14  15  16  17  18  19  20  21  22  23  24  25  26  27  28  29  30  
   31  32  33  34  35  36  37  38  39  40  41  42  43  44  45  46  47  48  49  50  51  52  53  54  
[Printable]
018
ASUS43 KMPX 011010
RWRMN
WEATHER ROUNDUP FOR MINNESOTA
NATIONAL WEATHER SERVICE TWIN CITIES/CHANHASSEN MN
400 AM CST SUN FEB 01 2015


NOTE: "FAIR" INDICATES FEW OR NO CLOUDS BELOW 12,000 FEET WITH NO
SIGNIFICANT WEATHER AND/OR OBSTRUCTIONS TO VISIBILITY. N/A MEANS
CURRENT SKY AND/OR WEATHER CONDITIONS ARE NOT AVAILABLE.

MNZ060>063-068>070-011100-
   Twin Cities Metro

CITY           SKY/WX    TMP DP  RH WIND       PRES   REMARKS
TWIN CITIES    LGT SNOW  16  10  77 NE18      30.18F WCI   0
ST PAUL        LGT SNOW  17  10  74 VRB7G21   30.21F WCI   8
CRYSTAL        CLOUDY    17   7  64 NE13G23   30.19F WCI   4
BLAINE         CLOUDY    18   9  68 NE16      30.20F WCI   3
LAKEVILLE      CLOUDY    14  12  92 NE14G25   30.15F FOG     WCI  -1
EDEN PRAIRIE   LGT SNOW  16  10  77 NE14      30.16F WCI   2
SOUTH ST PAUL  CLOUDY    17  11  78 NE7G17    30.19F WCI   8
LAKE ELMO      CLOUDY    18  10  73 NE13G24   30.20F WCI   4
$$
MNZ001>005-007-008-013>017-022>024-027-028-011100-
   Northwest Minnesota

CITY           SKY/WX    TMP DP  RH WIND       PRES   REMARKS
BEMIDJI        MOCLDY   -10 -16  75 N7        30.41S WCI -25
HALLOCK        PTCLDY   -15 -22  70 N8        30.58S WCI -32
ROSEAU         PTCLDY   -17 -22  76 CALM      30.54F
WARROAD        PTCLDY   -18 -24  76 NW7       30.52F WCI -35
THIEF RVR FALL PTCLDY   -11 -17  77 N10       30.49F WCI -30
CROOKSTON      PTCLDY    -9 -17  70 N15       30.55S WCI -31
FOSSTON        PTCLDY    -9 -17  70 NE10      30.45S WCI -28
DETROIT LAKES  PTCLDY     0  -8  71 NE12      30.36F WCI -18
MOORHEAD       PTCLDY     0  -9  65 N22       30.45S WCI -23
PARK RAPIDS    MOCLDY    -3 -12  65 N9        30.34F WCI -19
MAHNOMEN       FAIR      -6 -13  70 NE16      30.41F WCI -28
$$
MNZ006-009>011-018-025>026-011100-
   North Central Minnesota

CITY           SKY/WX    TMP DP  RH WIND       PRES   REMARKS
BAUDETTE       MOCLDY   -16 -21  78 NW6       30.49S WCI -31
FLAG ISLAND    MOCLDY   -18 -24  76 NW8       30.51F WCI -37
INTL FALLS     MOCLDY   -22 -27  77 N3        30.47S
WASKISH        PTCLDY   -15 -18  84 CALM      30.47S
BIG FORK       PTCLDY   -11 -18  70 N5        30.42R WCI -23
LONGVILLE      CLOUDY    -4 -13  65 N7        30.37S WCI -18
GRAND RAPIDS   CLOUDY    -6 -15  65 N9        30.34F WCI -22
CRANE LAKE     PTCLDY   -26 -31  75 CALM      30.49S
ORR            MOCLDY   -17 -22  76 CALM      30.40S
COOK           MOCLDY   -11 -18  70 CALM      30.41S
WALKER         FAIR      -6 -15  66 N7        30.39S WCI -20
$$
MNZ012-019>021-037-011100-
   Northeast Minnesota

CITY           SKY/WX    TMP DP  RH WIND       PRES   REMARKS
DULUTH         FLURRIES   0  -7  72 N9        30.30R WCI -15
ELY            PTCLDY   -11 -17  77 N3        30.39S
HIBBING        CLOUDY    -5 -15  62 NE9       30.37S WCI -22
EVELETH        CLOUDY    -6 -15  65 N12       30.37S WCI -24
DULUTH HARBOR  LGT SNOW  12  10  92 NE29      30.36S WCI  -9
TWO HARBORS    CLOUDY     5  -2  72 N9        30.33S WCI  -9
SILVER BAY     PTCLDY     0  -9  65 N6        30.36S WCI -12
GRAND MARAIS     N/A     -5 -17  56 N7        30.47S WCI -19
G MARAIS ARPRT MOCLDY   -13 -20  70 N10       30.31S WCI -32
$$
MNZ029>031-032-039>041-046>048-054>057-064-011100-
   West Central Minnesota

CITY           SKY/WX    TMP DP  RH WIND       PRES   REMARKS
FERGUS FALLS   PTCLDY     1  -9  60 NE13G18   30.38S WCI -16
WHEATON        PTCLDY     1  -6  71 N20G25    30.36S WCI -20
MORRIS         MOCLDY     9   0  66 N21       30.26F WCI -11
ALEXANDRIA     MOCLDY     5  -4  66 NE15      30.26R WCI -13
ELBOW LAKE     FAIR       4  -4  70 NE13G21   30.30S WCI -13
WADENA         MOCLDY     0  -9  65 NE12        N/A  WCI -18
GLENWOOD       CLOUDY     9   0  66 N18       30.23S WCI -10
APPLETON       CLOUDY    14   3  62 N20       30.24F WCI  -3
BENSON         CLOUDY    12   0  57 E12G22    30.23S WCI  -2
ORTONVILLE     MOCLDY     7  -2  66 N24       30.27S WCI -15
MADISON        MOCLDY    16   7  67 N22       30.24R WCI  -2
WILLMAR        FAIR      14   1  57 NE21G31   30.20S WCI  -4
$$
MNZ033>034-036-042>043-049>051-058-059-011100-
   Central Minnesota

CITY           SKY/WX    TMP DP  RH WIND       PRES   REMARKS
ST CLOUD       CLOUDY    11   1  64 NE10      30.24S WCI  -3
SAUK CENTRE    CLOUDY     8  -2  65 N16       30.24F WCI -10
PAYNESVILLE    CLOUDY     8  -1  68 N13G22    30.22S WCI  -8
AITKIN         PTCLDY     3  -9  55 N7        30.32S WCI  -9
PINE RIVER     CLOUDY    -2  -9  71 N10G16    30.37S WCI -19
BRAINERD       PTCLDY     1  -9  62 N15       30.32S WCI -18
STAPLES        MOCLDY     1  -9  60 NE10      30.31S WCI -14
LONG PRAIRIE   MOCLDY     5  -4  66 N16       30.26S WCI -14
LITTLE FALLS   MOCLDY     7  -4  61 N6        30.28F WCI  -3
LITCHFIELD     CLOUDY    16   7  67 NE13G24   30.19S WCI   2
BUFFALO        CLOUDY    15   7  68 NE14G24   30.21S WCI   1
MAPLE LAKE     CLOUDY    15   7  72 N15       30.22S WCI  -1
$$
MNZ037-044-045-052-053-011100-
   East Central Minnesota

CITY           SKY/WX    TMP DP  RH WIND       PRES   REMARKS
PRINCETON      CLOUDY    12   3  67 N12G23    30.24S WCI  -2
MORA           CLOUDY     9   0  66 N5        30.28F WCI   0
CAMBRIDGE      CLOUDY    12   3  67 N10       30.23S WCI  -1
RUSH CITY      CLOUDY    11   5  76 NE10G17   30.26S WCI  -3
MOOSE LAKE     MOCLDY     3  -6  66 N10       30.30F WCI -12
HINCKLEY       FAIR       9   1  72 N14       30.28S WCI  -8
CLOQUET        FLURRIES   0  -8  71 N8        30.30F WCI -15
MCGREGOR       MOCLDY     0  -8  71 N9        30.33F WCI -16
$$
MNZ071>073-080-081-089-090-097-098-011100-
   Southwest Minnesota

CITY           SKY/WX    TMP DP  RH WIND       PRES   REMARKS
MONTEVIDEO     CLOUDY    14   7  73 NE20G25   30.22S WCI  -3
GRANITE FALLS  CLOUDY    14  10  81 N16G22    30.20S HAZE    WCI  -2
CANBY          LGT SNOW  12   8  83 N16G26    30.22R WCI  -5
MARSHALL       CLOUDY    14   9  79 N21       30.16S WCI  -4
REDWOOD FALLS  LGT SNOW  17  12  80 NE10G20   30.15S WCI   5
OLIVIA         LGT SNOW  16  10  79 NE20G28   30.16S WCI  -1
PIPESTONE      LGT SNOW  16  12  86 NE15G23   30.06R WCI   1
WINDOM         LGT SNOW  16  14  93 N23G31    30.05S WCI  -2
WORTHINGTON    CLOUDY    28  12  50 NE29G35   30.02S WCI  13
JACKSON        LGT SNOW  19  18  93 NE25G36   30.01S WCI   2
TRACY          LGT SNOW  17  14  89 N20G25    30.12S WCI   0
SLAYTON        LGT SNOW  16  14  90 N12G20    30.06S WCI   3
$$
MNZ065>067-074>077-082>085-091>093-011100-
   South Central Minnesota

CITY           SKY/WX    TMP DP  RH WIND       PRES   REMARKS
MANKATO        CLOUDY   N/A N/A N/A NE22G29   30.08F
NEW ULM        LGT SNOW  16  12  86 NE20      30.11F VSB 1   WCI  -1
ST JAMES       LGT SNOW  19  16  86 N24G31    30.08S WCI   2
FAIRMONT       CLOUDY    18  14  86 NE25G31   30.01S WCI  -1
GLENCOE        LGT SNOW  17  13  87 NE10G20   30.15F WCI   4
FARIBAULT      LGT SNOW  18  12  79 N18G24    30.11F WCI   2
OWATONNA       LGT SNOW  18  12  79 NE21G28   30.06F WCI   1
WASECA         LGT SNOW  18  14  86 NE25G31   30.07F WCI  -1
ALBERT LEA     LGT SNOW  18  18 100 NE22G29   30.00F VSB 1   WCI   0
$$
MNZ078>079-086>088-094>096-011100-
   Southeast Minnesota

CITY           SKY/WX    TMP DP  RH WIND       PRES   REMARKS
ROCHESTER      LGT SNOW  18  15  88 NE22      30.03F VSB 3/4 WCI   1
RED WING       LGT SNOW  18  10  73 E12G21    30.15F WCI   5
STANTON        LGT SNOW  18  14  84 NE15      30.12F WCI   4
DODGE CENTER   LGT SNOW  18  16  93 NE20G26   30.03F WCI   1
WINONA         LGT SNOW  21  18  86 NE8       30.14F WCI  12
AUSTIN         LGT SNOW  19  16  86 NE18      30.00F WCI   4
PRESTON        LGT SNOW  20  18  91 NE17G23   30.02F WCI   5
$$
ABBREVIATIONS USED IN REMARKS
   TC - TEMPERATURES IN CELSIUS
  WCI - WIND CHILL INDEX
   HX - HEAT INDEX
  VSB - VISIBILITY
$$




U.S. Dept. of Commerce
NOAA National Weather Service
1325 East West Highway
Silver Spring, MD 20910
E-mail: w-nws.webmaster@noaa.gov
Page last modified: May 16, 2007
NATIONAL WEATHER SERVICE: for Safety, for Work, for Fun - FOR LIFE